Flag for Poland Weather past 2 weeks in Szczecin, Poland

34 °F

Light rain. Fog.

Feels Like: 27 °F
Forecast: 31 / 39 °F
Wind: 8 mph from South

Location: Szczecin Airport

Current Time: Nov 25, 2015 at 7:51:56 PM

Latest Report: Nov 25, 2015 at 7:00 PM

Visibility: 2 mi

Pressure: 29.65 "Hg

Humidity: 100%

Dew point: 34 °F

Location of SzczecinLocation

Historic Weather in Szczecin — Graph


Szczecin temperature yesterday

Maximum temperature yesterday: 36 °F (at 12:00 PM)
Minimum temperature yesterday: 25 °F (at 12:30 AM)
Average temperature yesterday: 32 °F

Past Weeks' High & Low Weather Summary

High59 °F (Nov 11, 3:00 AM)100% (Nov 10, 9:30 PM)30.24 "Hg (Nov 10, 9:30 PM)
Low25 °F (Nov 24, 12:30 AM)66% (Nov 14, 1:30 PM)29.33 "Hg (Nov 21, 1:30 AM)
Average45 °F89%29.77 "Hg
* Reported Nov 10 7:00 PM — Nov 25 7:00 PM, Szczecin, Weather by CustomWeather, © 2015

Note: Actual official high and low records may vary slightly from our data, if they occured in-between our weather recording intervals... More about our weather records


Szczecin weather history for previous 24 hours

Time TempWeatherWind HumidityBarometerVisibility
7:00 PM
Wed, Nov 25
34 °FLight rain. Fog.8 mph100%29.65 "Hg2 mi
6:30 PM34 °FFog.8 mph100%29.65 "Hg3 mi
6:00 PM34 °FFog.8 mph100%29.65 "Hg3 mi
5:30 PM34 °FFog.8 mph100%29.65 "Hg3 mi
5:00 PM34 °FFog.9 mph100%29.65 "Hg3 mi
4:30 PM34 °FFog.8 mph100%29.65 "Hg2 mi
4:00 PM34 °FLight rain. Fog.8 mph100%29.65 "Hg2 mi
3:30 PM34 °FLight rain. Fog.9 mph93%29.65 "Hg2 mi
3:00 PM34 °FLight snow. Fog.9 mph93%29.65 "Hg2 mi
2:30 PM32 °FLight snow. Ice fog.9 mph100%29.65 "Hg3 mi
2:00 PM32 °FLight snow. Ice fog.9 mph100%29.65 "Hg3 mi
1:30 PM32 °FLight snow. Ice fog.9 mph100%29.65 "Hg3 mi
1:00 PM32 °FLight snow. Ice fog.10 mph100%29.65 "Hg3 mi
12:30 PM32 °FLight snow. Ice fog.10 mph100%29.65 "Hg3 mi
12:00 PM32 °FLight snow. Ice fog.10 mph100%29.68 "Hg3 mi
11:30 AM32 °FLight snow. Ice fog.10 mph100%29.68 "Hg2 mi
11:00 AM32 °FLight snow. Ice fog.10 mph100%29.68 "Hg1 mi
10:30 AM32 °FLight snow. Ice fog.12 mph100%29.68 "Hg2 mi
10:00 AM32 °FLight snow. Ice fog.13 mph100%29.68 "Hg2 mi
9:30 AM32 °FLight snow. Ice fog.10 mph93%29.71 "Hg2 mi
9:00 AM32 °FLight snow. Ice fog.12 mph93%29.68 "Hg2 mi
8:00 AM32 °FLight snow. Broken clouds.12 mph93%29.71 "Hg5 mi
7:00 AM32 °FLight snow. Clear.12 mph87%29.71 "HgN/A
6:30 AM32 °FLight rain. Passing clouds.12 mph87%29.71 "HgN/A
6:00 AM32 °FPassing clouds.13 mph80%29.71 "HgN/A
5:30 AM32 °FPassing clouds.13 mph87%29.74 "HgN/A
5:00 AM32 °FPassing clouds.12 mph87%29.74 "HgN/A
4:30 AM34 °FPassing clouds.12 mph81%29.74 "HgN/A
4:00 AM34 °FPassing clouds.12 mph81%29.77 "HgN/A
3:30 AM34 °FPassing clouds.12 mph81%29.77 "HgN/A
3:00 AM34 °FPassing clouds.10 mph81%29.77 "HgN/A
2:30 AM34 °FClear.10 mph81%29.80 "Hg10 mi
2:00 AM34 °FClear.10 mph81%29.80 "Hg10 mi
1:00 AM34 °FClear.12 mph81%29.83 "Hg10 mi
12:30 AM34 °FClear.10 mph81%29.83 "Hg10 mi
12:00 AM34 °FClear.12 mph81%29.86 "Hg10 mi
11:00 PM
Tue, Nov 24
34 °FClear.10 mph81%29.86 "Hg10 mi
10:30 PM34 °FClear.12 mph81%29.89 "Hg10 mi
10:00 PM34 °FClear.13 mph81%29.89 "Hg10 mi
9:30 PM34 °FClear.13 mph81%29.92 "Hg10 mi
9:00 PM34 °FClear.10 mph81%29.92 "Hg10 mi
8:30 PM34 °FClear.13 mph81%29.92 "Hg10 mi
8:00 PM34 °FClear.13 mph81%29.95 "Hg10 mi
7:30 PM34 °FClear.13 mph87%29.95 "Hg10 mi
7:00 PM34 °FClear.13 mph87%29.95 "Hg10 mi
Weather by CustomWeather, © 2015

See weather overviewHow to use our weather pages